Weather History for Douglas, WY

Change the Weather History Date:

Thursday, April 25, 2013

  Actual Average Record
Temperature  
Mean Temperature 44 °F 46 °F  
Max Temperature 67 °F 61 °F 77 °F (2012)
Min Temperature 21 °F 32 °F 19 °F (2002)
Degree Days  
Heating Degree Days 21 19  
Month to date heating degree days 745 550  
Since 1 July heating degree days 6689 6868  
Cooling Degree Days 0 0  
Month to date cooling degree days 0 0  
Year to date cooling degree days 0 0  
Moisture  
Dew Point 16 °F    
Average Humidity 49    
Maximum Humidity 88    
Minimum Humidity 9    
Precipitation  
Precipitation 0.00 in 0.06 in 0.42 in (2009)
Month to date precipitation 0.47 1.18  
Year to date precipitation 1.44 2.82  
Sea Level Pressure  
Sea Level Pressure 29.96 in    
Wind  
Wind Speed 12 mph (West)    
Max Wind Speed 30 mph    
Max Gust Speed 37 mph    
Visibility 10 miles    
Events      
T = Trace of Precipitation, MM = Missing Value Source: NWS Daily Summary

Daily Weather History Graph

Daily Weather History Graph

Search for Another Location

Airport:

Trip Planner

Search our weather history database for the weather conditions in past years. The results will help you decide how hot, cold, wet, or windy it might be!

Date:

Astronomy

Apr. 25, 2013 Rise Set
Actual Time 6:03 AM MDT 7:55 PM MDT
Civil Twilight 5:33 AM MDT 8:26 PM MDT
Nautical Twilight 4:56 AM MDT 9:03 PM MDT
Astronomical Twilight 4:16 AM MDT 9:43 PM MDT
Moon 8:12 PM MDT (4/25) 5:48 AM MDT (4/25)
Length of Visible Light 14h 52m
Length of Day
13h 51m
Full, 100% of the Moon is Illuminated
Apr 25
Full
Apr 25
Full
May 2
Last Quarter
May 9
New
May 17
First Quarter

Hourly Weather History & Observations

Time (MDT) Temp. Windchill Dew Point Humidity Pressure Visibility Wind Dir Wind Speed Gust Speed Precip Events Conditions
12:53 AM 30.9 °F 22.2 °F 19.9 °F 64% 30.10 in 10.0 mi SE 10.4 mph - N/A   Clear
1:53 AM 27.0 °F 19.5 °F 19.0 °F 72% 30.08 in 10.0 mi SSE 6.9 mph - N/A   Clear
2:53 AM 27.0 °F 19.5 °F 19.0 °F 72% 30.06 in 10.0 mi ESE 6.9 mph - N/A   Clear
3:53 AM 28.0 °F - 18.0 °F 66% 30.06 in 10.0 mi Calm Calm - N/A   Clear
4:53 AM 23.0 °F 18.4 °F 18.0 °F 81% 30.06 in 10.0 mi NW 3.5 mph - N/A   Clear
5:53 AM 23.0 °F - 19.0 °F 85% 30.07 in 10.0 mi Calm Calm - N/A   Clear
6:53 AM 27.0 °F 23.0 °F 21.0 °F 78% 30.06 in 10.0 mi SSE 3.5 mph - N/A   Clear
7:53 AM 39.0 °F 36.8 °F 25.0 °F 57% 30.03 in 10.0 mi NW 3.5 mph - N/A   Clear
8:53 AM 48.9 °F - 21.9 °F 35% 30.00 in 10.0 mi SW 11.5 mph - N/A   Clear
9:53 AM 55.9 °F - 17.1 °F 22% 29.95 in 10.0 mi West 17.3 mph 24.2 mph N/A   Clear
10:53 AM 57.9 °F - 10.9 °F 16% 29.92 in 10.0 mi West 26.5 mph 34.5 mph N/A   Clear
11:53 AM 60.1 °F - 12.0 °F 15% 29.92 in 10.0 mi WSW 21.9 mph 34.5 mph N/A   Clear
12:53 PM 62.1 °F - 12.9 °F 15% 29.88 in 10.0 mi West 21.9 mph 33.4 mph N/A   Clear
1:53 PM 64.0 °F - 10.0 °F 12% 29.87 in 10.0 mi West 26.5 mph 33.4 mph N/A   Clear
2:53 PM 66.0 °F - 10.0 °F 11% 29.84 in 10.0 mi WSW 21.9 mph 33.4 mph N/A   Clear
3:53 PM 64.9 °F - 8.1 °F 11% 29.82 in 10.0 mi WSW 21.9 mph 32.2 mph N/A   Clear
4:53 PM 64.9 °F - 9.0 °F 11% 29.83 in 10.0 mi West 20.7 mph 26.5 mph N/A   Clear
5:53 PM 63.0 °F - 3.0 °F 9% 29.85 in 10.0 mi NW 20.7 mph 26.5 mph N/A   Clear
6:53 PM 61.0 °F - 5.0 °F 11% 29.87 in 10.0 mi NW 17.3 mph - N/A   Clear
7:53 PM 51.1 °F - 18.0 °F 27% 29.89 in 10.0 mi North 6.9 mph - N/A   Clear
8:53 PM 46.0 °F 43.9 °F 19.0 °F 34% 29.91 in 10.0 mi NNW 4.6 mph - N/A   Clear
9:53 PM 43.0 °F 39.5 °F 19.9 °F 40% 29.93 in 10.0 mi WSW 5.8 mph - N/A   Clear
10:53 PM 37.9 °F 34.4 °F 21.0 °F 51% 29.96 in 10.0 mi NNW 4.6 mph - N/A   Clear
11:53 PM 37.0 °F 33.3 °F 21.0 °F 52% 29.98 in 10.0 mi WNW 4.6 mph - N/A   Clear